Theta_e
325 319 322 323 321 321 315 312 294 298 300 292 290 291 291 299 299 298 299 301 301 306 308 308 306 308 308 312 316 318 318 315 316 304 302 320 334 337 339 342 343 343 343 343 342 340 340 343 344 345 343 343 342 342 343 346 348 348 348 348 348 347 346 348 348 347 347 347 346 345 344 342 344 344 343 342 342 341 340 341 341 340 340 339 340 341 341 341 341 341 341 342 341 342 342 344 344
320 314 316 322 320 313 304 306 297 293 291 288 290 292 295 298 295 295 298 300 303 306 306 306 306 308 319 319 319 319 318 321 321 320 327 333 337 338 341 342 343 341 342 342 340 340 339 341 345 344 343 342 342 342 343 343 345 349 348 348 347 348 347 347 346 345 345 345 345 345 342 340 340 342 343 343 341 340 341 342 341 341 341 341 341 340 340 340 340 340 340 341 341 340 341 342 343
321 316 316 317 316 312 307 306 295 290 289 286 287 290 297 297 297 300 303 306 308 308 307 307 309 308 309 314 316 315 311 325 326 328 328 335 331 334 340 342 342 342 342 341 341 340 339 340 343 344 344 343 342 341 343 345 348 349 348 347 346 346 346 346 345 344 344 344 344 344 342 341 342 341 341 341 340 341 341 338 337 338 339 339 338 339 340 340 340 340 339 340 341 340 340 341 343
324 319 317 314 305 308 301 298 294 293 290 286 288 294 299 300 300 303 305 306 306 305 306 306 305 309 313 315 317 322 319 320 326 327 326 330 331 335 339 341 342 342 342 342 341 338 337 341 343 345 344 343 341 342 345 347 348 348 348 348 347 347 347 346 345 343 343 342 341 341 342 342 340 340 342 342 342 340 339 338 339 340 339 339 340 340 340 340 339 339 338 338 339 338 339 341 342
318 318 320 311 307 302 301 297 294 291 289 287 287 293 299 302 303 304 304 304 303 304 306 308 304 307 313 315 317 312 314 323 326 329 327 331 337 337 339 340 341 341 341 341 340 338 338 341 343 343 344 343 342 341 342 347 348 347 347 347 347 346 344 342 341 341 341 341 341 341 341 339 338 337 339 341 342 341 340 340 340 340 339 338 340 341 340 340 339 340 340 340 339 339 339 340 341
315 315 319 310 304 307 302 296 293 292 291 292 290 297 300 304 304 304 303 304 305 305 305 306 304 305 312 316 320 314 321 317 326 328 330 331 335 338 339 340 340 341 340 340 339 337 337 339 342 343 343 343 342 341 344 348 348 347 347 347 345 344 344 343 340 339 339 340 340 339 339 338 338 340 340 341 341 341 341 341 342 340 340 339 340 339 340 340 340 340 339 339 339 339 338 339 340
315 311 310 307 305 306 296 292 292 292 293 294 296 299 301 302 303 303 302 302 304 305 306 308 312 312 311 318 320 324 329 327 327 329 332 333 336 338 340 339 340 340 340 339 338 337 338 340 343 343 344 344 342 342 341 343 347 346 345 345 344 343 342 340 338 338 339 339 339 339 340 339 338 338 339 339 339 342 343 344 343 341 339 339 338 339 339 339 339 339 339 339 339 339 339 339 339
317 308 307 298 296 299 294 293 293 291 295 297 301 301 302 303 302 302 300 299 301 302 306 305 304 307 307 315 314 324 330 331 331 333 334 334 336 337 338 339 339 339 339 339 338 338 343 340 342 342 343 343 342 342 341 341 341 343 344 343 343 341 339 337 338 338 338 338 338 338 338 337 337 337 339 341 343 344 344 344 343 343 341 339 339 339 340 341 341 341 340 340 340 339 338 338 338
313 308 307 301 296 296 292 292 292 294 296 298 300 305 308 304 302 301 299 300 301 303 305 303 303 301 307 317 315 322 327 331 333 334 334 335 335 336 338 339 339 338 338 339 339 338 338 339 341 343 343 343 342 341 341 341 341 344 343 342 341 339 337 337 338 338 338 338 338 337 337 337 337 337 338 339 343 343 343 342 342 342 341 340 339 339 339 339 339 339 339 339 339 339 338 338 338
307 305 297 297 296 294 291 289 292 293 295 299 301 302 303 302 301 301 300 299 301 302 304 304 305 310 316 314 316 321 324 331 332 332 334 334 335 336 338 340 340 338 338 339 339 338 338 342 338 340 341 343 343 343 341 341 341 344 342 340 340 338 338 339 339 339 339 338 337 337 337 336 336 336 337 338 338 340 341 341 341 341 341 341 339 339 339 338 339 339 339 339 339 338 338 338 338
301 304 305 298 293 290 291 289 291 295 296 299 299 302 303 301 301 299 300 301 302 303 304 302 312 314 318 317 317 324 330 331 331 330 333 334 334 337 339 341 340 338 338 338 338 338 337 337 340 338 340 340 342 343 342 342 341 341 340 340 338 338 343 342 341 339 339 338 338 337 337 337 337 338 338 338 338 339 339 340 340 340 340 339 339 338 337 337 337 338 339 339 338 338 338 337 337
302 298 301 293 292 290 291 290 293 293 296 297 298 302 301 301 300 299 300 302 302 302 303 302 301 317 315 315 315 323 329 329 330 332 333 334 335 337 340 340 340 339 339 338 338 337 336 337 337 340 336 337 340 341 342 342 342 341 341 340 338 338 342 343 343 341 340 339 338 338 339 337 339 338 337 337 337 338 338 338 339 340 340 339 338 337 337 337 337 338 338 337 337 337 337 337 336
301 300 296 295 289 292 291 292 292 293 294 296 297 302 301 303 299 300 299 302 301 301 302 304 306 310 310 314 319 324 326 328 331 331 332 332 334 337 339 340 340 339 339 338 337 336 336 336 336 336 334 333 333 335 337 339 341 343 342 343 343 342 342 342 342 342 340 339 339 339 340 341 342 338 337 339 339 341 341 341 341 341 340 339 338 337 337 337 337 337 337 337 337 337 336 336 336
302 303 298 293 293 294 293 291 291 291 291 295 298 301 303 301 302 301 300 299 299 300 303 304 310 322 317 318 317 319 324 329 331 332 332 331 333 337 337 340 340 339 338 338 337 337 335 336 336 334 334 333 332 332 333 337 340 341 341 340 342 342 342 342 342 341 341 339 339 338 339 340 341 341 341 339 339 340 341 340 340 340 339 338 337 337 337 337 336 336 336 336 336 336 335 335 334
305 304 299 296 294 293 293 291 292 289 290 295 299 300 300 303 300 298 300 299 301 305 307 309 308 308 311 314 313 318 325 329 331 331 330 331 334 335 336 338 339 339 339 338 338 336 336 336 335 334 333 334 333 333 333 333 333 337 338 338 340 341 342 341 341 338 338 337 336 333 333 333 333 334 335 336 337 335 336 338 339 339 338 337 336 336 336 336 336 336 336 337 336 335 335 334 334
306 303 299 295 291 293 292 293 292 292 292 296 299 299 300 300 301 299 301 302 302 305 304 303 308 305 309 315 318 323 328 329 330 329 329 332 334 334 335 335 336 337 338 337 336 336 336 336 335 334 334 334 333 333 332 331 329 331 334 335 336 337 338 338 337 335 332 330 329 328 327 327 326 326 326 328 331 334 333 331 335 337 337 337 336 335 335 335 335 335 335 336 336 335 335 333 333
306 301 294 291 290 292 292 293 293 289 294 296 299 300 299 298 301 301 301 304 302 303 310 312 308 323 320 319 324 326 328 329 327 327 327 328 329 329 330 331 332 334 337 337 336 336 336 337 336 334 334 334 334 334 333 331 327 327 328 328 330 333 334 334 333 327 324 323 323 322 323 325 325 326 326 324 323 325 325 328 334 337 336 336 335 335 335 335 335 335 336 335 335 334 331 330 330
303 296 293 291 291 293 293 295 293 295 296 296 298 299 299 297 300 301 301 301 303 305 311 315 323 323 324 325 327 328 328 328 327 326 324 324 326 325 327 328 330 331 333 334 336 338 337 336 335 335 334 334 334 335 335 332 329 329 328 327 327 327 326 326 327 328 331 324 322 323 324 325 326 326 326 329 323 324 324 325 329 334 336 334 335 334 334 335 335 335 335 335 334 331 324 318 320
298 295 294 290 292 294 297 296 297 298 296 298 299 297 300 299 299 300 297 297 301 302 304 313 317 321 324 326 326 327 327 327 326 325 324 323 324 325 325 326 328 329 331 332 333 337 337 336 335 335 334 334 334 335 335 332 332 331 329 328 327 325 329 329 329 329 327 327 324 324 325 323 324 325 326 326 325 321 323 323 328 331 333 332 334 335 334 334 334 334 333 333 333 329 320 319 317
298 296 292 293 296 296 297 298 299 299 299 298 298 297 299 299 299 300 296 296 298 299 302 305 316 318 321 323 325 325 326 325 325 324 324 323 324 325 325 325 327 329 330 330 331 335 337 337 336 335 334 334 334 334 334 333 332 332 331 330 328 327 327 328 329 329 328 328 328 327 326 325 324 326 328 327 326 322 322 323 326 327 328 328 329 330 332 334 334 333 332 332 329 322 318 318 319
297 296 293 296 297 296 297 296 298 299 302 299 298 298 297 298 299 299 296 296 295 297 304 306 313 319 321 323 323 324 324 324 323 324 324 323 323 325 326 327 327 329 330 330 330 332 334 336 336 336 335 335 334 334 332 331 332 332 332 331 330 328 327 328 328 329 329 328 328 329 326 325 325 325 325 324 322 322 320 320 321 323 321 319 323 319 321 322 320 319 317 319 315 316 318 320 320
300 295 296 297 295 296 296 297 297 300 299 300 297 297 298 299 299 297 297 294 292 295 301 306 317 322 322 322 323 324 324 323 323 323 323 323 323 324 325 325 327 329 329 329 329 330 331 335 335 337 336 334 334 334 332 329 329 331 330 331 331 330 329 328 327 328 328 329 326 326 326 325 324 324 323 323 323 323 322 322 321 321 319 320 320 322 317 319 316 316 315 315 316 317 318 318 317
294 294 295 296 296 296 298 297 296 299 299 299 297 298 299 297 297 296 296 294 295 298 299 302 315 324 325 325 324 323 323 322 323 322 323 323 322 324 325 326 326 326 328 329 330 330 331 333 334 336 335 334 334 334 333 329 328 330 330 330 329 330 328 327 326 328 329 329 326 325 325 323 322 322 322 321 322 324 323 322 321 321 322 320 321 320 320 319 319 318 317 318 317 317 315 315 315
298 293 295 297 296 298 296 296 296 298 300 299 298 299 298 296 295 297 297 298 298 300 302 306 314 325 326 323 323 323 323 323 323 324 324 324 323 324 325 326 327 326 327 328 329 330 329 332 334 335 335 334 334 335 333 331 330 330 330 327 328 328 327 326 327 328 329 329 327 326 324 324 323 321 323 321 322 323 323 323 322 321 320 321 319 318 320 317 314 317 317 315 315 315 315 317 315
298 296 296 297 296 296 295 294 295 296 297 296 298 298 297 295 295 296 296 298 298 302 312 312 318 324 324 323 322 323 323 323 323 324 324 324 324 324 324 326 326 325 327 326 328 329 329 331 333 335 335 335 335 334 333 332 332 332 330 329 328 327 328 328 328 328 328 328 328 325 324 323 321 323 323 323 321 323 323 323 321 322 321 320 319 316 319 317 316 314 315 316 314 314 314 314 315
299 298 296 296 296 297 295 296 295 295 297 297 297 294 295 296 299 296 297 298 298 305 315 317 320 322 321 322 322 322 323 323 323 323 324 324 325 324 324 325 326 325 326 327 327 328 329 330 332 334 335 335 335 334 333 333 332 331 331 330 328 326 328 328 327 327 328 328 327 326 324 324 323 323 323 323 322 321 320 321 321 321 320 320 319 318 317 317 316 315 313 313 314 313 313 316 314
299 296 296 295 295 296 297 296 297 297 296 295 295 294 296 296 296 292 297 298 299 307 313 316 318 319 321 320 321 323 323 323 324 325 324 324 325 325 325 325 325 326 326 326 327 327 329 329 329 332 335 333 335 334 332 333 333 332 331 330 329 329 329 328 327 327 327 327 327 327 325 324 323 321 323 323 323 321 320 321 320 319 318 319 318 317 318 318 317 318 316 315 315 314 315 313 315
297 296 295 295 296 296 296 295 296 296 297 294 295 294 295 295 296 290 295 297 301 304 307 312 315 317 318 319 319 322 323 324 324 324 324 323 324 325 325 325 325 326 326 326 327 327 329 330 329 330 333 334 334 333 331 332 332 332 331 331 330 330 329 328 327 327 325 326 326 326 326 325 324 321 321 322 323 321 320 321 320 319 319 318 318 317 315 317 317 316 316 316 315 315 315 313 312
296 298 294 295 295 296 296 295 296 296 295 297 297 295 294 294 292 294 296 297 297 302 302 303 308 311 315 317 318 319 322 323 323 324 325 326 326 326 326 327 326 326 328 328 328 327 329 330 330 329 331 332 334 333 332 332 332 333 332 331 331 331 330 329 328 327 327 327 326 326 326 326 325 324 320 321 319 321 320 321 320 320 320 320 318 317 316 315 313 312 312 314 313 312 312 313 311
297 298 294 293 293 292 295 296 297 295 295 296 297 287 288 293 297 296 296 297 296 299 299 299 301 302 306 313 315 317 319 321 322 324 325 326 326 326 326 328 327 327 327 327 328 327 329 331 331 331 330 331 332 333 333 332 333 334 333 332 331 332 330 328 328 327 326 328 328 327 326 326 325 324 322 319 319 319 320 320 321 320 319 319 319 317 316 315 315 313 313 313 315 314 314 315 312
294 293 295 289 289 287 294 295 295 294 296 295 297 288 286 292 295 295 296 297 297 298 298 298 299 299 300 305 311 313 315 320 323 324 325 326 327 327 327 327 328 327 325 326 328 328 328 330 331 332 329 330 330 331 331 332 333 334 333 332 331 331 331 330 328 329 327 327 329 329 328 327 326 324 322 321 319 319 318 318 318 321 321 318 318 317 317 315 315 315 312 313 311 312 313 314 313
293 291 287 291 290 288 294 295 294 293 295 297 293 288 287 290 293 295 296 296 297 296 296 298 299 299 300 302 308 311 313 316 322 323 324 326 327 326 326 326 328 328 326 327 327 328 328 330 330 331 329 330 330 331 331 332 332 331 332 330 333 332 330 330 329 329 329 327 328 330 330 330 329 327 325 322 320 319 318 318 318 319 318 317 318 315 315 316 315 314 312 313 311 313 312 313 312
292 289 283 287 287 288 292 294 293 295 293 295 293 285 288 292 293 295 295 295 294 295 295 297 299 299 300 304 307 310 311 311 316 321 323 325 326 326 327 326 327 328 328 327 327 327 327 328 329 330 330 330 331 330 331 331 332 331 331 333 334 333 332 330 328 329 329 329 329 330 330 329 329 330 330 328 325 321 318 317 317 318 317 317 316 315 314 316 315 315 312 312 313 312 311 311 311
287 289 285 287 289 287 286 292 295 296 293 291 293 289 288 289 293 294 295 295 294 293 294 296 298 299 300 302 306 309 311 312 315 319 321 323 325 325 327 324 326 327 327 327 327 328 328 327 329 330 330 331 331 331 331 332 333 332 329 329 329 332 332 331 330 329 329 327 327 329 329 328 329 329 328 327 326 327 325 322 318 316 316 317 317 318 317 316 314 314 314 312 313 312 311 311 311
284 286 286 288 288 289 289 288 292 295 294 292 291 290 291 290 292 293 295 294 295 295 295 294 296 298 299 301 304 307 309 311 314 318 321 322 323 324 325 325 325 326 327 327 327 327 327 327 327 327 329 330 330 331 330 331 333 332 330 329 328 331 331 330 332 331 330 329 327 326 326 328 327 328 328 328 326 325 325 324 323 323 322 321 321 321 319 317 316 314 313 313 311 313 313 312 312
287 288 288 286 286 286 287 291 294 296 292 290 290 291 292 292 291 292 293 293 294 295 295 293 294 296 297 299 302 304 306 310 314 316 319 322 322 323 324 324 325 326 327 327 326 327 326 326 327 326 328 330 329 329 330 329 329 329 328 325 327 328 331 328 331 333 332 330 328 326 326 326 325 326 328 327 325 323 321 322 323 323 321 321 321 321 320 318 318 316 314 313 312 312 312 313 313
289 289 289 289 288 288 290 292 293 294 292 290 291 292 290 290 291 293 294 292 292 292 293 294 293 294 295 296 298 300 302 305 309 314 316 320 321 321 323 324 324 325 326 326 326 326 327 327 326 326 327 329 328 327 328 328 327 326 325 326 325 325 328 330 330 330 330 330 329 329 327 326 326 325 325 325 325 323 324 322 322 322 323 322 321 321 321 320 319 317 315 314 314 314 313 312 313
290 289 288 287 288 288 290 291 294 293 292 290 289 289 289 290 291 292 293 292 293 293 293 294 295 294 295 295 296 296 299 301 303 305 313 316 319 319 320 323 320 323 325 326 326 326 327 327 327 327 326 327 328 328 327 328 328 328 327 326 324 323 324 326 327 326 328 328 329 329 328 327 327 326 324 325 325 325 325 325 323 323 323 322 321 320 318 314 317 318 318 316 315 315 315 316 314
290 288 288 287 287 288 291 290 292 292 293 287 288 288 290 291 291 290 292 294 295 295 295 296 295 295 295 295 295 296 298 301 300 304 310 314 317 318 319 321 322 325 325 326 326 326 326 326 327 326 327 327 327 328 326 326 325 325 326 321 325 321 321 326 327 326 327 328 328 329 328 329 329 328 327 326 326 327 327 326 325 325 322 321 318 317 316 315 317 319 318 318 317 314 314 313 310
289 288 286 287 288 287 286 288 290 290 288 288 289 288 289 290 290 290 293 295 294 295 295 295 296 296 296 296 296 297 298 300 300 302 307 311 314 317 316 317 320 320 321 323 324 325 326 325 326 326 327 327 326 326 325 326 325 325 325 324 325 326 323 322 324 324 326 327 327 328 328 328 328 328 329 329 328 328 328 327 326 323 321 320 321 320 317 317 316 315 314 315 315 315 313 313 311
290 291 288 286 287 287 287 288 289 289 290 290 285 284 285 286 289 291 293 293 294 295 294 294 294 295 296 296 295 297 300 301 300 299 301 304 305 308 312 315 314 317 318 320 322 324 327 326 325 326 327 327 327 324 325 325 323 321 323 320 321 321 320 318 319 320 322 324 326 325 327 327 328 328 328 328 326 327 327 328 326 324 323 322 321 319 318 319 319 316 317 317 316 315 315 314 311
287 292 291 290 290 289 287 289 288 285 285 287 287 282 279 282 289 291 293 290 291 292 293 294 295 295 295 296 297 296 299 301 301 300 301 302 304 303 301 301 303 308 312 314 313 318 319 321 323 324 325 326 326 325 325 325 324 324 322 321 319 318 319 315 318 318 317 318 323 325 327 326 328 327 328 327 326 323 325 326 326 326 325 324 322 322 322 320 319 316 318 319 317 316 317 315 313
287 287 293 292 291 289 289 288 286 280 279 285 287 282 275 281 285 288 288 288 292 291 293 295 294 295 294 296 297 296 299 298 298 298 297 298 298 298 299 299 300 301 302 301 306 312 315 319 321 322 323 324 326 325 324 323 323 324 323 323 320 320 319 315 312 314 318 317 320 324 326 325 326 327 326 327 326 325 325 327 328 328 328 326 321 320 320 320 320 320 320 318 318 316 315 313 313
285 291 292 292 291 289 288 289 286 280 284 289 286 281 278 278 282 285 287 289 290 290 292 291 292 292 294 294 294 294 295 295 298 298 297 297 298 299 300 300 299 300 299 300 303 306 313 316 318 319 320 321 323 325 324 324 324 322 321 320 319 317 317 316 313 317 317 318 320 321 324 325 324 325 324 323 325 325 325 326 327 327 325 324 321 321 321 322 321 318 316 317 317 315 315 315 315
286 293 293 292 292 290 289 289 284 283 283 280 282 287 281 275 282 286 287 287 287 290 291 291 291 292 294 294 296 297 298 298 299 299 298 297 297 297 298 299 299 299 300 301 302 302 305 310 315 316 318 319 318 322 323 320 321 320 319 318 315 314 317 315 311 313 317 318 318 317 316 317 318 317 318 318 318 321 319 323 324 324 324 324 320 321 321 321 320 320 319 317 317 317 316 315 314
293 294 295 293 293 291 290 285 286 285 281 279 282 283 277 277 279 285 286 286 286 289 292 292 291 294 295 296 298 298 298 297 298 299 298 299 299 299 299 300 300 299 299 299 300 302 304 307 312 314 314 315 316 317 319 317 316 316 316 314 315 311 312 310 311 314 312 312 311 310 310 311 312 314 315 316 319 319 320 320 320 321 322 323 320 323 323 321 320 320 320 320 319 318 318 317 315
295 294 293 290 287 285 282 282 281 282 277 278 280 283 281 277 280 286 285 286 287 290 288 290 292 293 295 296 297 297 298 297 297 297 298 299 299 301 301 302 301 301 300 301 301 302 303 307 308 312 311 312 314 315 316 314 313 314 314 312 312 313 310 312 313 310 308 308 310 309 310 310 309 311 312 313 316 318 319 317 317 317 317 316 318 321 321 321 321 321 321 320 318 318 317 317 316
295 289 287 289 287 282 280 281 281 277 272 277 282 283 283 276 277 282 286 284 286 289 290 291 292 294 295 295 296 296 297 296 296 297 297 297 298 298 300 301 301 301 301 302 301 302 303 304 307 309 308 309 309 311 312 312 312 311 310 311 311 311 311 311 310 308 308 309 309 309 308 308 309 311 310 311 312 312 312 312 310 312 315 317 318 318 317 317 318 318 318 317 318 317 317 315 315
291 289 288 284 279 279 277 278 276 274 274 281 279 282 282 281 281 283 285 284 287 288 291 294 294 293 294 294 295 296 296 295 296 296 297 297 299 299 300 301 301 302 303 303 304 302 303 306 308 309 307 306 307 308 311 310 311 310 311 310 309 310 310 310 309 310 308 311 310 308 307 304 305 308 308 309 309 308 310 311 311 311 313 314 314 315 315 316 316 316 316 315 316 317 317 316 315
288 287 283 281 274 272 270 269 271 272 277 279 280 281 280 280 283 289 291 292 287 290 291 294 295 295 295 295 295 296 296 296 296 296 296 296 297 298 299 301 302 302 303 305 303 305 306 307 307 310 308 307 308 310 310 311 310 310 310 311 310 311 309 310 309 310 310 309 307 305 305 304 303 303 303 304 304 304 306 305 305 307 307 310 311 311 311 311 313 314 313 313 313 314 314 314 314
288 287 287 282 279 271 269 271 272 271 273 277 279 278 275 278 283 286 287 287 291 291 292 292 293 294 294 293 294 294 295 295 295 296 297 298 298 298 300 300 300 301 303 304 303 305 306 307 308 310 311 309 310 311 311 312 311 311 311 312 312 313 312 312 310 310 308 305 302 303 302 302 305 302 303 303 302 303 302 304 302 303 304 305 306 308 309 310 312 312 311 311 312 312 312 312 312
287 287 288 284 282 280 274 273 273 271 274 275 276 276 277 283 288 287 288 288 290 290 292 293 294 294 294 295 297 297 296 297 296 296 296 296 296 297 298 298 298 298 299 299 302 304 307 308 309 311 312 311 311 311 312 313 313 313 313 314 311 309 308 306 305 304 303 302 303 303 301 301 301 301 303 302 302 302 302 302 302 301 301 302 303 303 305 307 308 308 309 309 309 310 309 309 310
288 288 282 284 286 283 276 277 279 275 273 273 274 280 279 283 284 288 287 288 289 289 291 292 293 293 294 295 295 294 296 295 295 296 295 295 295 295 295 295 296 297 298 299 299 302 305 307 309 310 310 310 310 310 309 309 308 308 306 305 305 305 304 303 303 301 302 302 302 302 302 300 301 301 302 300 301 300 300 300 300 300 301 301 301 302 303 302 304 304 303 303 304 304 305 305 306
287 282 286 288 288 285 280 275 273 270 270 273 277 277 277 279 276 284 286 286 286 287 288 291 292 291 293 294 294 295 295 295 294 294 293 294 294 295 295 295 295 296 296 297 297 297 299 300 301 301 301 301 299 301 302 302 302 301 301 301 301 301 301 300 300 300 300 300 299 299 299 299 298 298 299 298 298 298 297 296 297 297 297 298 298 299 300 301 302 301 302 302 303 304 303 303 304
288 286 290 287 281 281 281 276 270 270 269 269 276 276 276 277 280 282 283 284 287 287 287 289 291 291 292 292 293 293 293 294 295 295 295 294 294 294 295 295 295 295 295 296 297 298 298 297 297 298 298 298 298 300 300 300 300 301 300 299 299 299 299 299 298 299 299 298 297 297 297 296 298 297 298 297 296 295 293 292 293 293 294 295 295 295 295 296 295 296 296 296 299 301 300 300 301
294 292 288 289 285 282 278 279 276 277 269 270 273 276 276 280 281 284 287 288 288 288 286 289 292 293 294 294 295 294 295 295 295 294 294 294 294 294 295 295 295 296 296 296 296 297 297 297 297 297 297 297 298 298 298 298 298 298 298 297 297 297 297 298 297 297 297 296 296 296 296 296 295 295 295 294 292 292 290 290 290 290 291 290 291 291 291 291 290 291 290 291 293 296 296 297 297
285 284 285 286 285 285 282 282 278 274 269 267 267 271 274 280 284 286 288 289 289 289 289 289 292 293 294 295 295 295 295 295 294 294 294 294 294 294 294 294 294 293 293 295 296 296 295 296 296 296 297 296 296 296 296 296 296 296 296 295 295 295 295 295 295 295 295 294 294 293 293 292 292 292 291 290 291 289 289 289 289 289 289 289 290 289 288 289 288 288 289 291 294 295 295 295 295
287 287 285 288 283 281 279 279 280 276 276 272 271 272 275 284 286 287 286 288 288 289 290 290 292 293 294 295 295 295 295 294 294 293 293 293 293 294 293 293 291 294 294 294 294 295 295 295 295 295 295 295 295 295 295 295 295 295 294 294 293 293 294 293 293 293 292 291 291 291 289 290 290 288 289 289 289 288 287 287 287 288 289 288 289 290 288 288 289 289 289 292 290 292 293 293 293
Wind_Speed
6 5 2 1 3 2 2 1 1 2 2 3 2 1 2 0 4 4 5 4 5 0 2 3 5 5 4 6 13 9 7 1 1 2 3 2 6 9 9 12 10 9 9 6 6 6 6 9 11 11 11 11 12 10 10 14 14 15 15 14 15 15 15 15 15 16 16 16 17 17 16 15 17 17 17 17 17 17 16 17 16 16 16 17 17 17 17 17 17 17 17 17 17 16 15 15 15
4 4 3 1 0 2 1 2 1 2 3 2 2 2 4 1 5 5 5 4 1 1 2 4 5 9 14 14 9 7 10 7 2 4 5 7 9 9 11 11 11 11 8 7 7 6 5 7 10 10 11 12 12 11 13 13 14 15 15 15 15 14 15 16 16 16 15 15 15 16 16 14 15 16 16 16 16 16 16 17 16 16 16 16 16 16 17 17 17 17 17 17 17 16 15 14 14
3 5 5 4 1 1 1 2 1 0 2 2 4 3 2 8 7 5 8 8 6 5 5 4 5 5 5 5 10 6 1 4 8 8 7 9 11 7 10 10 10 11 10 6 6 6 5 6 10 12 12 11 11 11 12 14 15 15 14 14 14 15 15 15 16 15 14 14 14 15 14 14 16 15 15 15 15 15 15 15 14 14 15 14 15 16 16 16 16 17 17 16 16 15 14 13 14
1 0 2 2 2 2 1 1 1 1 3 5 0 1 4 8 7 9 6 7 6 5 2 2 4 2 8 13 7 8 5 3 3 7 7 7 6 9 9 11 10 9 8 7 6 5 4 7 11 12 11 11 11 10 12 14 14 15 15 15 15 15 16 16 15 14 13 12 12 15 15 16 15 14 16 15 16 15 15 15 14 15 15 15 15 16 15 16 16 16 16 16 16 15 14 13 13
1 0 2 2 2 1 1 2 2 3 2 3 4 0 4 7 9 8 4 4 4 5 2 2 3 3 5 6 1 2 1 5 6 3 5 5 10 10 10 10 9 9 9 8 7 5 5 11 11 11 12 12 12 11 12 14 15 15 15 15 15 15 15 14 13 13 11 10 12 14 14 15 14 13 14 15 15 14 13 13 15 14 14 14 15 15 15 15 15 15 15 16 15 14 13 12 12
2 3 0 3 1 2 2 2 3 1 4 3 5 4 4 6 10 8 5 5 3 5 3 3 3 2 4 2 1 3 2 4 3 3 6 9 11 11 12 9 9 10 9 8 7 5 6 9 10 11 12 12 12 11 9 15 15 15 15 15 16 15 14 14 13 11 11 11 11 14 14 13 13 15 14 14 13 13 13 14 14 15 14 14 14 14 15 15 15 15 15 15 14 14 12 11 11
2 4 2 2 2 1 3 1 1 4 5 2 7 7 8 4 8 11 6 4 4 5 3 5 9 8 7 1 3 1 3 4 4 5 5 10 12 12 11 9 10 11 10 8 6 5 6 10 12 12 10 10 11 11 11 12 15 15 14 15 15 15 14 13 13 12 13 13 14 14 14 14 13 13 13 12 13 14 14 14 14 14 14 13 13 14 14 15 15 15 14 14 14 13 11 10 10
0 3 0 2 2 1 1 2 4 3 2 2 8 11 7 7 7 7 5 6 2 3 1 3 4 6 2 2 5 2 5 4 9 9 11 11 11 10 9 10 11 10 9 8 6 5 10 10 11 10 11 11 10 11 11 10 10 12 14 13 13 14 13 12 13 13 13 13 12 13 13 13 14 13 12 12 13 14 14 14 14 14 14 13 13 13 14 14 14 14 14 13 13 12 11 9 9
1 1 1 3 1 1 1 2 3 1 0 4 4 9 9 11 6 7 5 3 3 2 1 3 7 7 1 8 4 0 3 7 11 12 11 11 10 10 8 10 11 10 9 7 6 5 6 9 10 10 10 10 11 11 11 10 9 14 14 13 13 13 12 13 14 13 12 13 13 13 13 13 13 12 11 12 13 13 13 13 14 14 14 13 13 13 13 13 13 13 13 13 12 11 9 8 8
1 2 1 1 3 3 3 5 2 2 2 5 8 7 8 5 5 6 8 5 5 4 3 3 5 7 5 9 3 3 3 6 10 10 11 10 8 8 10 11 12 12 10 8 6 6 5 8 10 10 10 10 10 10 10 9 10 13 12 12 12 11 11 13 14 13 12 12 12 11 12 12 12 12 12 11 11 13 13 13 12 12 13 13 13 12 12 12 11 12 12 12 11 10 9 8 8
0 2 1 1 1 2 5 2 3 1 3 1 3 4 8 7 8 6 6 6 3 4 2 6 9 9 7 2 0 3 3 4 11 12 10 8 6 11 11 12 11 11 10 9 7 6 6 5 10 10 10 10 9 9 9 9 11 11 11 12 12 12 13 13 13 12 12 12 11 11 10 10 12 13 11 11 10 11 12 12 12 12 12 12 12 11 11 11 11 12 12 11 11 10 9 8 8
1 0 1 2 3 6 4 4 2 2 1 3 1 0 1 8 7 7 8 8 3 4 3 3 4 5 7 4 1 1 6 4 6 9 9 5 6 11 13 9 10 10 11 9 7 6 5 5 5 8 10 10 9 8 8 9 10 10 10 10 11 12 12 12 11 11 12 12 11 11 11 10 14 12 11 11 10 9 11 11 11 11 12 12 12 12 11 10 10 10 11 10 10 9 9 8 8
2 1 1 1 4 3 3 6 6 3 2 1 4 1 1 6 7 10 7 7 6 5 1 3 6 6 2 2 2 2 7 5 6 6 7 6 5 9 10 11 11 10 10 9 8 7 6 5 5 5 7 10 9 9 8 8 9 10 10 9 8 9 12 12 11 11 11 12 12 11 10 10 9 10 11 11 11 11 12 12 12 12 13 13 12 11 10 10 10 10 9 9 9 9 8 8 8
2 1 2 3 0 2 2 2 3 5 2 3 1 1 1 3 1 8 9 8 4 6 2 3 3 10 5 4 2 5 5 7 7 6 5 6 7 8 10 10 11 11 9 8 8 7 5 5 5 5 6 6 5 7 8 9 9 9 9 9 9 9 11 11 10 10 11 11 10 8 9 8 10 11 11 11 11 10 10 12 12 12 13 12 11 10 10 9 9 9 9 9 8 8 7 7 7
0 1 1 1 3 2 2 7 9 5 4 3 4 4 3 2 4 4 10 7 1 1 1 2 4 5 6 8 4 8 8 9 8 6 4 7 10 8 9 10 10 10 9 8 8 7 6 5 5 5 5 5 5 5 4 6 9 8 8 9 9 10 10 10 10 9 9 10 9 8 9 9 10 10 10 9 9 10 10 10 10 10 12 11 10 9 9 9 8 8 9 8 8 7 6 6 6
2 2 2 1 3 1 5 3 2 6 3 4 5 5 7 3 2 5 0 5 2 1 2 0 2 1 6 9 8 12 11 10 8 7 8 11 11 8 9 8 8 9 7 8 8 7 7 6 5 5 5 5 5 5 5 4 6 8 8 8 9 9 9 10 10 9 9 10 10 9 9 7 7 7 10 7 10 9 9 7 8 8 10 10 9 8 8 8 8 7 7 8 7 6 5 5 4
1 4 0 2 4 1 5 3 8 4 1 4 1 5 5 2 2 2 0 3 9 2 5 3 1 2 3 4 13 13 12 10 7 8 10 9 9 7 7 6 7 7 6 7 8 8 8 8 8 6 5 6 6 6 5 5 6 8 6 8 9 9 9 9 9 9 8 8 8 9 8 6 5 4 5 5 7 5 7 9 8 9 9 8 8 7 7 7 7 7 7 6 6 5 4 3 2
2 2 2 3 5 2 4 5 6 5 9 6 5 4 9 5 1 2 3 7 6 5 8 2 8 7 4 8 15 14 12 12 8 11 9 9 8 7 7 6 6 7 8 7 6 9 8 8 9 8 7 7 6 6 5 5 5 6 5 4 4 6 7 7 6 4 5 4 6 5 4 5 5 4 4 5 4 5 5 8 8 8 8 6 6 6 7 7 7 6 5 5 4 4 3 1 1
2 2 3 7 2 5 2 3 5 9 4 8 6 4 8 6 8 3 5 4 6 6 3 4 8 6 9 11 13 13 12 10 9 11 12 11 10 10 8 7 6 6 6 6 6 9 9 8 8 8 8 8 8 6 6 6 6 5 5 4 4 5 6 5 4 4 3 4 3 3 3 1 3 4 5 5 4 6 5 7 7 7 7 7 5 5 5 7 5 5 4 3 3 3 1 0 2
3 3 3 5 3 3 2 1 9 4 12 9 6 4 6 7 4 2 5 7 6 8 7 2 8 8 8 8 10 11 11 9 8 11 11 10 9 10 8 8 7 7 6 6 7 7 9 8 9 8 8 9 8 6 6 6 5 5 5 5 5 5 5 5 4 4 4 4 4 3 3 3 3 5 6 9 7 4 5 6 7 7 7 7 7 4 5 5 5 3 3 3 1 2 1 2 3
2 2 3 2 1 2 4 5 4 7 14 10 7 3 5 5 4 4 7 8 3 5 9 12 12 13 11 11 10 10 10 9 7 7 10 8 7 6 7 8 7 7 6 5 5 6 8 9 7 8 9 9 8 7 7 6 6 6 5 5 5 5 5 5 5 4 4 4 5 4 3 4 4 5 5 5 5 4 4 4 4 4 4 3 5 3 3 3 3 2 1 0 1 1 2 3 3
2 7 5 2 1 1 5 3 3 9 7 10 6 9 7 2 3 5 9 7 6 8 9 9 16 15 15 13 11 9 11 11 9 8 9 10 11 9 6 4 4 5 4 6 6 6 6 8 8 7 8 8 9 8 8 7 7 6 6 6 6 5 6 6 5 5 5 5 3 3 5 6 5 5 5 5 5 5 4 5 5 4 3 4 3 4 3 3 3 2 2 2 3 2 2 3 3
3 2 2 1 1 2 1 3 4 7 6 8 7 4 6 4 4 3 7 6 3 3 3 8 15 16 15 13 12 10 11 11 10 10 10 9 8 8 9 8 8 8 7 7 6 5 6 7 8 8 8 7 8 8 7 7 7 7 7 7 7 6 5 6 6 6 5 5 4 3 6 6 5 6 5 5 5 5 5 5 5 5 4 4 5 4 4 4 4 3 3 4 2 2 3 3 4
4 5 1 1 1 2 4 2 4 6 12 7 4 5 5 6 6 1 4 1 4 1 2 13 14 12 12 13 12 14 14 13 12 10 11 12 11 12 11 11 9 6 6 7 7 7 6 8 8 8 8 8 7 7 7 8 6 7 8 7 7 8 7 6 6 6 6 6 4 5 5 6 6 5 5 5 6 5 5 5 5 5 5 5 6 5 5 4 4 5 4 3 2 3 3 0 1
6 5 2 1 1 1 3 3 1 6 5 5 8 6 5 5 4 3 5 4 3 3 8 11 14 14 12 13 13 11 11 10 9 8 6 5 6 6 7 8 8 7 10 8 8 7 7 7 7 9 8 9 7 7 6 7 7 6 7 7 7 8 6 6 7 6 6 6 5 4 4 4 5 6 5 5 5 6 6 5 5 6 6 6 5 4 5 5 5 4 4 5 3 2 0 1 2
5 7 4 2 1 1 1 1 2 5 4 6 7 3 1 1 1 3 7 5 4 7 11 12 13 13 12 13 13 12 12 13 10 9 11 8 7 7 7 8 9 9 10 9 8 8 7 6 8 10 9 9 8 7 6 6 6 6 5 7 6 8 7 6 5 6 6 6 6 5 5 5 5 6 6 6 6 6 6 5 6 6 6 6 5 5 5 5 5 4 3 3 4 3 3 4 4
5 4 4 5 1 1 1 2 1 0 3 3 7 4 1 1 2 2 1 7 4 9 11 11 13 12 10 9 10 10 12 13 14 11 7 7 9 9 9 8 9 9 9 9 9 8 7 7 6 8 9 9 7 7 6 7 6 6 5 5 5 6 7 6 6 6 6 6 7 6 5 5 4 4 5 6 5 5 4 5 6 6 5 6 6 6 5 5 5 6 5 5 4 4 6 5 5
5 7 6 4 1 2 0 1 1 2 2 3 9 2 1 2 1 4 5 5 5 12 11 11 11 11 10 10 10 9 10 11 9 8 12 11 10 10 10 9 9 8 11 10 9 8 8 9 7 7 9 9 9 7 6 6 7 6 5 5 5 5 4 5 5 5 6 6 6 6 5 6 5 3 4 4 5 5 5 6 5 4 6 5 6 5 5 5 5 5 5 4 5 4 5 4 4
7 11 3 0 1 1 2 5 3 1 2 2 5 5 1 0 4 5 6 6 4 9 8 9 10 10 10 10 10 9 10 10 9 10 12 11 9 10 12 9 11 10 9 11 10 8 10 9 9 7 8 8 10 9 7 6 6 6 6 5 5 4 5 4 4 5 5 4 5 6 6 5 5 5 3 4 4 5 5 5 5 5 5 6 5 5 5 4 4 3 3 3 3 3 3 4 2
7 0 6 3 1 2 5 1 0 2 1 1 1 3 6 7 9 2 6 7 4 6 6 5 6 7 8 9 10 10 8 9 11 12 11 11 9 9 12 10 9 10 8 7 9 10 9 7 7 6 7 8 9 8 7 6 6 6 6 5 5 5 5 5 5 4 3 3 5 5 5 5 5 5 4 2 3 4 4 5 6 6 6 5 5 5 6 5 6 4 4 2 4 4 4 4 3
8 2 4 5 5 4 3 3 3 4 1 1 0 3 4 6 7 4 5 7 10 9 7 6 6 6 6 7 9 10 11 12 14 13 12 12 10 8 9 8 8 7 7 7 11 10 10 9 8 7 7 7 8 8 8 7 6 6 6 6 6 5 5 5 5 4 3 3 4 5 5 5 4 5 4 3 3 3 3 4 4 6 5 4 5 5 6 4 5 6 4 4 4 3 4 5 4
3 6 5 1 8 2 2 2 4 7 1 1 3 0 7 3 3 5 6 5 7 8 7 7 7 6 6 6 8 9 10 10 12 13 13 12 11 9 9 9 9 8 9 9 8 8 9 9 9 8 7 7 7 8 7 7 6 6 6 6 6 5 5 5 5 5 4 3 3 4 5 5 5 4 4 3 3 3 3 3 4 4 4 3 5 3 3 5 4 4 4 4 4 6 4 6 4
2 7 3 4 4 3 1 3 5 4 2 1 2 4 0 2 3 3 4 5 6 7 6 6 7 8 6 6 7 7 6 6 7 10 12 12 11 10 10 9 9 11 9 8 9 8 8 9 10 10 10 9 8 7 6 6 6 6 5 5 6 6 6 6 6 5 4 4 4 4 4 5 4 3 3 3 2 2 3 3 3 3 3 3 3 3 4 4 4 4 4 5 5 6 4 5 4
5 2 4 4 8 2 3 1 2 1 5 5 1 2 4 2 5 5 4 5 5 6 7 8 8 7 8 6 6 7 8 8 10 11 12 11 10 12 11 10 9 9 9 9 9 11 10 9 9 10 10 8 8 8 7 7 6 5 5 5 5 6 6 6 6 6 6 6 4 6 5 4 4 3 3 2 2 3 3 3 3 2 3 3 3 4 5 4 4 4 5 4 5 4 5 5 6
5 5 3 2 1 8 7 6 5 5 3 6 3 3 5 4 3 5 7 5 6 8 8 8 9 8 8 8 7 7 8 10 12 10 11 11 11 10 10 10 9 9 8 9 8 8 7 7 8 9 9 9 8 8 7 6 6 4 4 4 5 6 6 6 6 6 6 6 6 4 4 6 7 6 5 5 7 6 5 4 3 4 4 4 5 5 4 4 4 4 5 5 3 5 6 6 6
5 7 6 4 6 4 4 5 1 11 5 5 6 8 9 6 4 5 4 5 7 9 7 4 6 8 8 8 8 8 8 11 10 8 8 9 9 10 9 9 9 9 9 8 9 8 8 7 7 7 8 9 7 6 6 6 6 7 6 4 4 6 6 6 6 7 6 6 6 5 5 5 4 6 7 7 6 6 5 5 6 5 4 3 4 5 4 4 6 5 5 5 5 5 5 6 5
6 5 6 6 7 3 1 1 1 3 4 7 10 10 5 5 7 7 7 5 5 5 6 7 6 8 8 8 9 10 10 12 8 9 9 10 9 9 8 9 9 8 9 9 10 9 9 10 9 10 8 9 8 8 8 8 8 6 5 7 7 5 6 6 6 6 6 6 7 7 6 6 6 5 5 5 7 7 6 6 5 5 5 5 5 5 6 6 6 5 4 4 6 6 5 4 5
4 5 7 6 5 8 2 2 1 1 4 6 4 3 6 7 7 7 4 4 9 9 8 8 9 8 8 9 9 10 10 3 2 5 7 7 8 7 7 7 7 10 9 11 12 12 11 10 11 10 7 9 10 9 8 8 7 8 8 8 6 5 5 6 6 5 6 6 7 7 7 6 6 6 6 5 5 5 6 6 6 7 6 5 6 7 6 6 5 5 4 5 4 7 6 5 3
4 5 7 6 5 1 0 1 1 1 2 5 2 4 8 10 7 5 7 11 8 10 12 12 11 8 8 8 8 8 5 6 5 7 9 9 9 9 8 8 8 12 12 13 12 10 10 10 10 9 9 9 9 9 8 8 6 6 6 5 6 4 3 4 5 5 6 6 7 7 7 6 6 6 6 6 6 6 7 7 7 6 6 6 6 6 6 6 6 7 6 7 6 3 3 1 3
4 4 5 9 6 6 2 2 1 3 2 1 1 6 9 5 4 6 9 11 6 9 11 9 10 12 10 10 10 9 8 7 7 7 10 9 9 9 7 7 8 7 8 8 8 11 10 10 9 10 10 9 8 8 9 7 7 6 6 6 5 6 6 5 5 5 5 5 6 6 6 6 6 6 6 6 6 6 6 7 6 6 6 6 8 8 7 7 5 5 5 5 3 5 2 3 3
4 5 5 4 6 5 5 5 2 0 1 2 2 2 6 4 5 6 7 8 5 7 7 7 7 6 9 7 5 8 11 10 9 6 6 7 7 9 10 10 7 8 8 9 9 10 9 11 10 11 10 10 8 8 9 7 7 5 6 4 4 4 0 3 4 6 5 5 5 4 6 5 6 6 6 6 5 6 5 6 6 6 6 6 5 4 4 6 6 4 4 5 5 6 7 4 3
3 4 9 8 12 6 4 7 7 1 2 3 4 1 4 5 11 13 10 3 7 6 9 12 11 8 5 6 9 6 5 7 12 12 11 10 10 7 4 3 6 6 7 6 5 5 5 7 7 8 8 8 9 8 9 8 8 8 7 7 7 6 7 5 6 6 4 4 6 4 6 5 5 6 5 5 6 5 6 6 5 5 4 4 4 7 7 5 5 5 8 8 8 8 8 5 4
3 5 2 8 10 9 11 8 6 2 5 3 1 8 5 4 4 8 7 6 12 3 8 11 9 8 7 8 7 7 8 6 2 2 4 5 5 5 5 5 6 6 5 3 4 5 6 7 7 8 8 8 9 9 9 9 8 8 10 9 7 8 8 4 2 2 5 3 3 5 6 5 6 6 5 6 6 6 6 6 6 6 7 7 6 4 4 5 5 7 7 5 7 5 4 6 8
4 1 2 9 11 11 10 11 7 4 1 1 1 3 4 5 8 4 5 9 10 7 7 6 7 7 7 6 6 6 5 5 6 6 6 6 6 8 10 7 5 6 5 3 4 5 6 7 7 7 7 8 8 9 9 9 9 8 8 7 7 6 6 5 3 3 1 1 2 0 0 1 0 1 1 1 2 2 3 4 3 4 3 3 2 3 4 6 6 3 2 4 4 4 5 8 9
3 1 7 12 12 10 8 9 5 2 5 2 2 1 1 5 7 5 3 3 3 8 9 9 8 7 7 7 6 5 5 6 6 6 5 6 6 6 5 5 4 4 4 5 5 4 4 5 6 5 6 6 6 8 9 7 7 7 7 6 6 4 5 4 2 3 5 4 5 4 4 3 4 4 4 4 3 3 2 1 2 2 3 3 2 3 3 4 5 5 4 4 4 5 4 4 3
1 3 4 4 6 5 7 6 6 1 2 6 6 3 3 7 6 2 1 1 5 9 12 10 8 9 9 6 5 5 4 3 3 5 4 4 4 4 4 4 4 4 3 4 3 3 4 4 6 6 5 6 5 6 7 6 6 7 7 6 6 4 4 3 5 5 5 4 5 3 3 3 3 5 4 4 3 3 3 4 4 4 3 3 4 3 3 3 3 3 4 4 5 6 5 5 7
4 8 8 5 6 4 3 5 4 3 2 7 5 3 3 3 4 7 6 7 8 8 3 2 2 3 4 5 6 5 5 4 4 4 3 4 3 5 5 5 4 2 2 4 4 4 4 5 5 6 5 5 5 6 6 5 5 5 6 5 5 5 5 5 5 4 3 4 5 4 3 2 2 3 2 2 3 3 4 4 4 3 2 2 2 3 3 4 4 5 5 5 5 6 5 5 6
8 3 5 7 4 6 4 2 3 4 5 4 1 2 1 6 4 6 7 3 3 8 8 8 7 7 6 5 4 5 5 4 4 4 4 4 4 3 4 5 4 4 4 4 4 4 4 4 5 6 3 4 4 5 6 5 6 5 4 5 5 5 5 5 5 4 3 3 3 3 2 3 5 4 5 5 5 4 3 3 4 4 5 4 4 3 3 2 3 3 3 3 3 4 4 4 4
6 7 8 10 2 3 1 0 4 5 6 1 3 0 1 8 8 4 3 5 4 6 8 11 11 7 5 5 5 5 5 5 5 4 4 4 5 5 5 4 4 4 4 5 4 4 4 4 5 7 4 4 4 5 6 5 6 5 6 5 5 5 5 6 5 5 3 5 6 5 5 4 5 5 4 5 5 5 5 6 6 5 5 5 5 5 5 6 6 6 5 5 5 5 5 6 5
8 10 8 8 4 3 5 3 1 2 4 3 0 2 2 3 8 10 12 12 5 4 5 6 10 10 8 6 5 5 5 5 5 5 4 4 4 4 4 4 4 4 4 5 4 5 5 5 5 8 5 4 5 5 6 6 6 5 5 6 5 6 5 6 5 5 5 5 5 4 4 3 4 3 3 3 1 4 5 3 3 4 3 3 4 4 4 4 5 5 5 5 4 4 4 5 5
7 3 8 7 7 5 4 3 5 6 5 1 3 2 6 5 5 2 4 3 1 0 1 4 5 6 6 5 4 4 5 3 4 4 4 5 4 5 5 4 4 4 4 5 4 5 5 5 6 7 6 4 5 5 6 7 6 5 5 5 5 5 5 6 5 6 5 5 3 5 3 3 4 3 3 1 3 4 3 4 4 4 4 3 4 4 4 5 5 5 4 4 5 5 6 6 5
3 4 6 6 6 6 5 6 5 3 2 0 1 5 4 5 1 3 1 2 4 3 5 6 5 4 5 5 5 5 5 4 4 5 4 4 4 4 4 4 4 4 4 4 5 5 6 6 6 6 5 4 5 6 5 6 6 5 5 7 6 6 5 5 5 5 4 5 4 4 4 4 4 4 4 4 4 5 5 5 4 4 4 4 4 4 4 3 4 4 4 5 5 5 7 7 6
4 5 5 4 3 9 5 2 1 4 3 5 2 4 5 8 5 1 1 2 0 1 3 4 5 5 5 6 5 5 5 5 4 5 5 5 4 5 4 4 4 4 5 5 5 5 7 7 7 7 5 4 5 5 5 5 5 5 4 4 4 4 5 5 6 5 5 5 5 5 5 4 4 5 4 4 5 5 6 5 5 6 5 5 5 4 4 4 3 3 2 3 4 4 5 5 6
6 2 8 1 3 5 5 4 1 1 4 5 3 7 4 2 6 2 0 3 4 4 3 4 4 5 6 5 5 5 6 5 4 4 4 4 5 5 5 4 4 5 5 6 6 5 6 6 6 7 6 6 4 5 5 5 6 6 5 5 5 5 6 5 5 5 5 6 5 5 4 6 4 3 4 4 5 6 5 6 5 5 4 5 4 5 5 6 6 5 4 3 3 4 3 2 3
2 6 2 7 4 3 1 5 1 2 2 2 2 3 4 6 6 0 5 6 8 6 5 4 6 5 6 5 5 4 4 5 5 6 5 5 5 5 5 5 4 5 5 5 6 7 7 6 6 6 7 6 6 6 6 6 6 5 5 5 6 5 5 5 5 6 6 6 5 5 5 4 4 5 6 6 6 6 5 5 5 4 5 5 5 5 5 6 5 6 6 5 5 5 5 5 5
0 1 2 1 3 2 4 6 4 6 5 1 4 2 5 6 6 10 9 12 12 9 6 9 9 9 8 7 7 7 7 6 6 5 5 5 5 5 6 6 6 6 6 6 6 7 8 6 8 7 7 7 7 7 7 7 6 6 6 6 5 5 5 6 5 6 7 6 4 5 5 6 5 5 5 5 6 5 5 5 4 4 4 4 5 4 4 4 4 4 4 4 4 5 5 6 6
0 2 0 0 1 2 3 1 4 4 4 4 3 1 5 7 7 7 11 11 13 13 13 9 8 8 7 8 9 8 7 7 6 6 6 6 6 6 5 5 5 5 5 5 6 7 6 7 7 7 9 8 8 6 7 6 6 6 7 7 6 6 7 6 7 6 7 6 6 6 5 4 5 6 5 5 5 4 4 4 4 4 4 4 4 4 3 3 3 4 4 4 4 5 6 6 6
3 8 10 10 7 3 5 8 1 2 2 3 3 6 6 8 2 5 6 6 4 8 10 10 8 8 9 8 7 8 7 5 6 6 6 6 6 6 5 5 4 6 6 7 6 7 7 7 6 7 7 6 7 7 7 7 6 6 7 7 7 6 7 7 8 7 7 6 6 6 5 6 6 4 5 5 5 4 4 4 4 4 4 4 4 4 4 4 5 5 5 4 3 4 4 4 4
Wind_Direction
342 334 308 148 93 101 68 38 46 307 64 266 254 343 209 78 147 75 80 42 65 313 128 94 45 29 80 123 111 101 25 32 271 140 200 156 131 138 143 129 129 124 122 123 110 99 101 105 104 102 100 100 100 102 110 104 95 93 91 92 91 88 89 93 88 86 87 87 87 87 85 81 85 85 88 87 83 82 82 80 80 79 78 77 79 79 79 79 78 77 76 76 76 75 69 65 63
325 330 326 165 137 80 305 134 101 1 35 343 265 100 192 127 46 114 93 91 132 136 94 88 62 73 99 117 134 97 35 24 42 107 82 111 122 129 136 131 132 128 126 119 111 108 105 109 109 105 102 100 98 94 90 93 101 103 103 99 96 96 96 89 87 87 87 90 90 90 89 89 90 91 86 85 84 84 87 85 81 80 79 78 78 80 81 80 80 80 79 79 77 76 72 66 62
332 357 4 44 39 125 270 44 293 81 110 218 266 220 45 74 104 109 110 108 120 118 97 84 74 58 63 79 49 58 83 41 76 78 94 124 117 154 134 130 129 128 122 117 114 111 112 118 116 107 97 92 101 104 97 89 86 89 86 89 94 95 91 88 87 86 86 90 93 93 91 86 87 88 87 90 85 81 81 80 82 88 85 86 85 84 85 84 81 80 81 80 80 79 80 77 65
313 300 96 44 334 23 49 18 117 236 288 210 274 326 102 122 122 117 116 120 120 109 89 36 57 278 89 75 101 80 106 103 68 119 126 145 145 145 139 129 132 126 115 115 112 111 114 115 109 105 102 94 95 97 93 95 93 93 95 94 91 91 91 91 88 86 88 89 95 96 91 87 86 88 92 89 89 86 87 90 88 76 76 79 83 83 80 79 80 83 83 82 82 82 85 82 67
316 304 116 81 101 352 99 210 191 119 290 206 176 283 136 120 126 112 113 125 110 113 101 105 67 351 90 109 141 92 162 106 127 129 115 113 135 147 134 131 127 115 109 113 113 112 111 111 111 113 104 96 97 98 97 98 96 95 95 94 92 92 91 87 86 86 89 95 100 98 95 93 93 94 89 89 90 89 87 83 82 81 80 81 84 85 84 83 82 81 81 82 82 83 88 76 62
348 21 140 104 187 183 44 334 341 284 227 162 113 167 158 142 120 116 109 84 91 79 113 92 147 101 34 4 6 84 137 128 162 74 125 143 148 141 132 132 123 110 115 111 112 116 118 117 116 114 106 100 99 102 104 110 104 104 102 101 99 95 92 91 88 90 98 107 108 102 97 97 95 89 91 94 95 97 93 87 84 87 88 87 85 85 86 88 89 87 85 85 84 82 82 65 56
331 28 360 26 337 55 182 137 274 237 298 133 136 150 145 151 130 113 103 64 357 45 19 104 104 95 84 141 52 23 244 151 111 138 127 139 133 134 133 128 116 115 114 114 116 119 118 117 117 114 106 99 99 100 97 103 113 109 106 102 100 97 95 92 90 94 108 114 110 105 102 95 91 92 89 95 97 93 89 87 87 87 86 80 84 87 88 86 84 84 83 83 85 82 74 63 54
149 101 284 95 264 52 303 217 246 145 355 56 144 133 147 145 135 108 139 98 160 93 326 116 99 91 42 54 115 285 21 73 113 115 119 125 128 130 128 124 114 112 114 118 121 123 118 112 112 111 110 105 102 103 104 94 97 110 103 100 101 100 97 95 95 98 103 104 103 106 101 98 98 101 104 93 89 94 91 91 93 92 87 85 83 85 86 86 84 85 86 84 82 81 75 63 51
349 86 332 70 302 5 339 214 230 232 40 83 119 141 151 146 143 121 106 131 98 108 98 101 115 87 182 70 66 317 48 97 109 114 121 127 130 134 128 119 117 120 121 122 122 113 113 116 114 113 110 107 104 103 104 98 99 101 100 98 99 101 100 104 105 99 93 97 101 102 101 101 97 96 96 94 99 98 96 92 88 88 90 86 82 81 83 85 88 87 85 84 83 80 76 62 49
360 97 308 157 127 285 304 303 125 236 163 151 142 154 143 144 117 117 123 103 153 126 175 150 100 114 125 92 98 48 125 116 108 112 131 141 138 127 114 114 122 124 125 125 123 120 120 121 117 113 111 109 104 103 100 97 96 106 105 106 103 103 104 103 104 104 99 95 92 97 108 105 106 110 105 98 93 93 93 94 95 90 86 87 86 84 84 90 92 90 86 82 79 78 72 59 43
40 10 152 48 15 273 256 278 208 296 146 132 96 161 155 134 123 121 118 125 129 134 173 120 88 127 107 84 133 255 144 113 121 137 150 143 131 120 115 123 126 128 129 129 127 123 122 123 120 115 113 111 110 105 101 99 94 92 104 106 102 102 99 106 106 105 102 97 93 85 77 104 104 95 90 86 85 94 99 99 100 99 97 93 91 90 88 83 86 85 83 78 74 71 67 59 44
45 99 29 168 211 185 232 162 228 238 312 108 102 225 187 121 114 107 114 108 132 122 152 106 148 132 82 126 184 168 128 123 133 147 150 126 130 124 126 127 127 128 128 130 127 126 125 120 114 116 114 111 106 99 94 93 99 105 99 100 111 113 109 110 110 108 102 96 93 89 81 89 111 103 101 93 81 77 85 87 88 95 99 100 97 95 94 92 84 83 81 78 73 69 66 58 47
124 127 86 120 231 159 238 146 205 156 107 234 157 255 100 91 130 137 135 129 146 112 126 230 138 103 107 116 211 156 134 167 156 155 146 121 132 123 121 126 128 125 125 130 128 129 127 121 120 117 114 103 96 95 91 90 88 85 95 93 81 111 119 114 115 110 103 94 91 91 84 71 74 101 96 84 78 76 84 89 92 98 96 92 89 91 90 89 86 86 84 82 80 72 65 57 46
111 175 117 243 252 241 123 212 150 134 226 231 250 210 42 86 204 143 124 116 159 134 232 209 77 101 86 91 122 165 173 164 163 158 140 126 124 121 120 124 126 128 132 133 132 134 128 128 124 124 119 110 106 98 93 95 94 95 95 90 90 97 111 114 115 112 95 91 89 83 85 80 82 80 83 82 74 70 80 93 96 92 91 88 87 87 91 91 94 96 93 87 81 80 73 61 45
85 212 87 157 317 40 233 134 197 157 190 163 224 135 69 24 98 73 128 113 103 226 174 80 159 92 205 147 198 197 175 161 163 148 113 105 123 115 122 127 131 130 137 136 137 139 139 133 132 134 128 125 122 110 101 96 98 101 101 98 99 106 114 116 112 108 106 101 96 94 91 88 86 86 84 80 79 77 79 92 99 93 93 93 93 92 95 97 96 98 98 95 93 87 78 71 46
160 80 90 35 278 214 269 149 109 120 195 171 208 125 92 33 47 92 267 146 171 339 68 49 26 151 155 167 180 171 162 151 161 123 107 105 113 118 122 128 136 134 140 145 148 150 145 143 147 144 142 141 133 126 118 112 105 109 109 105 105 107 114 118 119 117 115 111 116 113 108 101 94 92 91 84 84 80 83 87 92 101 103 100 100 101 102 106 108 104 106 108 103 100 95 81 61
54 82 340 27 298 214 260 145 139 190 219 191 204 148 133 85 322 70 330 104 105 64 61 354 85 45 150 192 144 142 149 145 130 126 110 111 116 122 119 122 132 130 139 159 158 156 153 153 160 156 159 154 141 134 129 120 119 114 105 110 113 115 115 120 122 124 124 126 128 133 126 119 118 111 96 99 86 87 88 87 90 92 99 99 100 105 104 102 104 102 104 106 114 114 109 87 82
65 119 127 283 215 262 230 178 189 183 139 191 171 183 124 124 128 150 73 60 90 78 79 34 47 43 73 111 125 136 143 145 147 137 134 129 133 134 135 150 142 154 146 160 178 157 158 162 166 168 162 160 150 143 139 136 140 130 130 126 117 117 119 122 128 143 147 149 153 151 137 137 134 124 117 107 104 99 91 100 100 103 99 103 112 116 116 112 109 112 111 123 126 137 115 108 136
118 166 116 222 201 234 199 200 161 122 192 163 166 173 144 169 141 187 99 130 116 83 48 81 76 61 73 101 123 134 143 150 153 154 148 146 147 151 153 156 160 152 158 163 172 164 163 165 170 172 165 162 152 148 147 151 149 144 146 140 135 136 141 142 151 159 167 159 168 174 137 126 151 138 134 129 121 111 112 110 111 110 109 103 98 106 126 122 119 123 137 147 154 138 103 322 302
230 111 202 247 220 271 342 276 169 164 142 148 159 201 143 186 137 177 134 159 127 137 131 59 117 130 126 125 131 138 145 155 162 160 157 153 155 156 155 163 163 168 168 176 168 173 161 166 174 169 166 160 152 153 149 157 159 156 158 155 148 153 158 160 164 172 186 172 172 189 181 148 163 143 136 127 121 114 111 114 121 124 126 123 118 106 104 123 135 163 176 166 170 180 210 264 268
268 122 193 229 271 340 295 334 222 149 145 154 160 158 127 188 163 136 150 112 192 190 178 159 168 156 151 149 146 146 149 158 169 171 160 158 159 158 165 168 166 170 172 172 169 176 165 168 170 162 159 153 152 151 153 166 168 162 169 166 164 167 177 178 177 182 196 191 175 196 181 144 155 144 140 137 137 138 136 137 144 146 146 139 134 139 152 146 127 198 289 196 243 202 224 252 256
102 206 195 242 334 249 271 288 278 138 137 131 135 129 173 145 106 127 146 146 207 196 204 178 159 156 152 156 161 152 159 165 173 176 175 166 166 167 164 159 153 167 168 168 191 181 176 168 163 161 155 153 151 155 165 170 163 169 171 177 169 180 178 183 183 187 197 208 166 184 138 150 150 139 146 152 154 157 160 169 179 174 172 174 171 166 195 169 190 203 251 239 232 224 207 230 241
233 297 210 183 227 185 288 314 298 138 135 136 136 169 116 140 176 151 142 171 219 202 192 161 157 164 161 151 151 159 165 172 178 181 179 176 170 172 174 175 173 178 181 188 183 190 181 173 160 158 159 154 158 162 159 163 172 173 174 175 169 182 183 178 181 191 186 202 177 162 146 151 154 157 160 165 169 170 185 186 189 182 194 191 194 173 201 208 188 204 219 227 245 274 263 222 179
183 240 203 311 83 182 300 294 285 145 133 157 148 139 123 129 158 197 109 249 176 213 169 158 155 141 139 150 168 168 173 176 186 187 185 184 179 179 178 180 186 173 174 186 186 188 179 180 159 161 161 157 163 171 152 171 179 167 176 177 177 176 176 182 181 187 180 185 185 164 176 162 159 168 182 170 186 179 202 196 189 188 192 211 191 175 191 213 187 195 225 238 200 216 219 331 4
193 240 191 252 61 245 298 294 55 106 108 119 115 131 163 155 172 101 172 194 210 105 96 123 135 143 152 157 168 170 172 178 183 189 189 200 195 188 177 179 181 166 182 184 185 184 186 177 160 164 164 164 164 166 162 168 179 162 173 175 181 171 181 186 186 180 175 184 188 178 165 179 158 174 187 197 169 191 202 202 179 196 186 201 189 190 177 194 200 186 202 221 217 209 231 267 259
203 213 144 147 235 226 267 311 59 112 100 118 91 89 20 194 37 142 186 210 191 119 108 125 134 145 158 168 170 169 173 181 181 185 188 189 197 189 193 177 178 175 183 179 177 186 185 169 163 170 166 169 168 160 168 167 177 171 168 178 171 162 185 191 186 173 178 172 189 185 185 176 186 176 190 202 179 191 194 193 176 188 188 190 188 188 203 177 193 221 224 218 200 215 221 240 223
188 148 138 150 262 165 255 207 259 231 95 122 121 132 129 330 103 227 230 194 175 119 128 136 142 155 164 167 172 176 174 180 186 184 179 186 198 195 198 188 180 183 175 177 177 182 183 174 170 172 168 167 165 171 165 173 173 180 179 175 167 171 164 163 186 179 176 177 184 183 187 179 178 174 190 187 189 194 192 183 181 179 192 188 190 192 190 191 192 202 205 207 204 211 222 218 201
121 130 100 78 265 297 273 93 218 120 82 98 118 106 113 353 68 214 200 204 175 131 142 150 151 160 167 173 174 179 183 186 182 176 189 189 196 197 199 188 189 176 175 179 180 176 180 186 179 175 171 167 165 175 168 171 177 182 182 172 182 189 179 163 156 174 192 187 183 183 186 194 187 170 178 201 185 189 187 190 190 172 198 199 189 191 187 203 195 208 211 206 206 197 220 234 218
164 133 130 229 51 163 238 173 222 94 170 130 126 74 22 332 205 235 186 158 188 139 156 159 162 167 170 174 174 179 188 181 179 189 200 200 190 194 199 190 182 178 184 174 178 171 181 188 184 180 171 168 169 174 176 172 176 176 178 182 185 184 191 192 186 174 183 201 187 184 187 192 195 190 174 190 200 190 185 185 197 200 201 200 194 195 193 202 199 191 228 222 199 182 204 248 237
136 49 136 107 288 286 244 261 304 127 218 95 178 172 258 233 230 249 170 153 128 124 161 179 175 174 173 174 177 183 182 174 184 195 198 202 198 195 196 198 177 178 178 178 171 176 180 184 185 179 170 170 174 171 172 169 178 177 177 180 185 186 190 194 214 199 186 176 186 181 187 189 191 199 174 184 183 184 194 190 195 209 213 205 198 190 194 197 202 201 225 206 231 227 240 251 266
156 186 128 162 146 243 234 192 208 134 262 166 114 170 275 252 251 192 194 165 154 168 184 191 192 194 186 181 180 183 188 182 188 192 196 199 202 197 195 197 186 169 168 177 181 175 176 179 180 186 173 168 172 172 172 173 169 170 176 177 182 184 192 192 206 214 192 192 151 177 181 186 192 191 183 176 198 190 185 204 215 217 210 205 196 205 192 199 193 208 202 214 250 255 250 257 251
161 112 227 265 168 263 243 281 167 154 265 121 101 224 228 262 250 190 185 178 164 171 186 192 195 198 197 189 186 187 190 192 191 191 192 194 195 199 192 194 193 179 170 178 183 170 171 176 180 180 174 165 177 174 173 173 170 167 175 179 176 180 182 194 201 209 204 183 164 146 176 180 183 174 150 153 196 206 207 216 221 235 229 200 207 204 190 193 207 215 220 200 224 247 246 258 242
197 146 212 191 156 210 88 253 209 196 119 2 151 195 314 289 209 216 202 168 167 171 188 195 198 198 195 190 188 187 185 198 201 197 193 189 194 195 196 190 189 190 179 166 177 180 170 175 176 175 181 172 174 174 171 169 170 176 174 178 179 176 181 190 199 201 203 212 195 165 171 173 187 179 141 131 166 214 223 222 254 243 234 204 195 194 198 207 197 215 240 228 211 237 232 253 258
214 129 168 202 169 178 195 300 241 195 157 193 246 144 221 244 183 199 212 181 176 180 197 202 199 195 197 187 186 185 189 192 199 198 197 188 191 192 193 189 187 184 183 175 173 178 180 172 174 176 181 176 171 177 179 173 170 178 179 177 180 183 186 185 189 188 203 204 214 199 173 175 179 165 172 174 240 234 227 221 236 246 245 220 205 193 213 210 209 201 233 236 221 223 235 237 253
166 157 149 202 110 173 174 152 237 133 243 181 179 205 261 290 214 209 202 194 186 202 203 197 196 196 196 193 192 194 194 199 208 200 192 190 189 192 188 185 182 181 182 180 170 174 171 171 169 173 173 176 175 175 179 174 166 180 183 177 190 196 191 190 184 189 195 199 197 203 201 186 185 182 190 213 232 237 239 239 244 241 217 226 225 223 223 218 227 222 219 249 239 221 224 226 232
176 155 175 157 149 224 184 223 249 162 176 194 179 202 219 246 243 239 241 210 191 211 212 199 201 197 194 194 198 197 201 213 213 199 194 193 190 184 185 181 180 180 177 177 174 168 171 167 174 173 179 176 168 170 166 172 173 187 196 202 201 203 196 188 194 193 188 193 195 192 194 205 208 202 196 198 210 219 229 234 236 237 229 219 228 230 234 226 229 236 247 236 258 263 244 244 242
170 168 171 178 171 202 276 250 283 160 136 206 199 214 208 218 223 222 211 200 219 233 223 219 205 198 198 200 199 201 203 212 211 197 191 193 192 188 181 175 176 177 175 177 178 180 177 176 169 183 184 175 170 169 177 176 182 186 193 201 206 201 195 189 191 195 194 192 191 192 196 201 201 204 207 196 201 209 214 222 225 233 225 214 210 219 219 225 224 221 234 226 238 256 262 238 254
193 171 180 214 183 189 240 212 219 328 165 235 212 216 247 229 233 234 209 163 214 207 215 218 214 203 202 199 203 201 208 243 170 200 210 190 188 189 178 178 167 172 188 180 185 189 185 177 182 183 173 179 182 180 178 184 188 190 189 197 190 190 196 198 207 200 198 196 194 196 198 200 201 204 207 207 218 215 220 218 214 217 214 221 223 225 222 220 220 222 223 251 217 234 249 208 219
233 171 189 196 220 179 295 4 352 322 127 274 190 198 244 239 231 243 188 197 210 207 198 202 195 205 208 208 206 203 193 202 191 198 192 191 188 186 180 183 183 184 183 185 187 181 183 184 189 178 181 179 186 181 172 186 184 184 179 184 183 203 218 202 198 203 195 195 197 197 197 197 201 208 205 208 212 218 220 214 210 210 210 210 224 236 226 224 216 221 216 222 244 242 280 288 220
197 217 159 207 187 129 226 293 31 360 109 232 156 197 259 297 274 245 219 198 210 210 211 212 191 194 205 205 197 192 198 185 189 184 187 191 185 185 181 186 189 178 175 183 179 183 185 187 184 180 185 182 178 184 182 181 176 176 184 173 188 181 197 205 208 214 211 205 205 196 193 192 197 206 206 203 206 212 211 213 212 208 217 207 209 215 214 225 222 227 221 229 230 267 239 269 217
233 184 200 162 162 201 153 197 106 360 12 74 70 26 313 267 253 266 245 220 221 217 217 235 246 229 211 209 199 192 187 189 186 191 189 176 179 188 189 192 181 183 186 186 183 183 186 187 183 179 180 184 179 176 180 172 162 167 175 183 178 202 314 182 200 230 215 210 210 198 207 194 200 209 215 217 214 217 214 215 214 218 220 220 213 224 224 225 224 224 218 225 209 225 254 249 244
266 225 190 191 173 140 98 112 110 49 297 285 127 338 289 243 222 228 236 191 219 225 199 220 221 223 200 193 207 208 212 195 179 183 187 187 186 190 198 187 185 200 198 203 193 187 173 180 173 171 175 180 183 180 175 170 175 174 174 173 187 191 202 180 191 196 194 192 205 203 202 202 209 216 217 217 213 215 220 221 221 224 227 228 214 221 227 229 227 221 225 221 229 220 231 251 270
167 249 188 170 159 132 133 140 96 133 177 276 134 177 259 327 259 238 235 213 230 209 199 213 203 202 195 195 191 183 178 187 226 179 174 178 208 196 215 205 206 200 219 224 194 190 182 177 179 174 170 179 183 182 176 169 177 181 184 186 179 184 188 218 207 193 164 205 179 176 198 203 208 206 213 210 213 213 217 219 221 223 227 229 232 227 234 234 240 234 241 228 234 232 207 237 244
217 250 171 130 129 135 157 151 156 191 237 302 59 127 199 289 285 249 233 199 217 220 230 224 218 212 210 205 202 197 197 193 172 171 180 194 192 192 199 207 201 205 204 187 159 173 177 180 176 176 170 170 180 179 180 176 176 180 178 181 176 171 178 193 198 203 202 149 140 216 172 63 71 222 232 275 267 242 223 230 234 243 252 261 228 211 219 230 240 272 242 220 228 212 209 226 244
216 194 147 148 156 158 151 144 146 167 115 246 288 247 223 258 263 308 122 167 237 230 224 222 221 221 211 207 208 204 194 190 181 183 187 184 188 197 190 188 211 185 174 168 164 160 154 158 161 159 165 164 171 175 175 175 160 162 160 157 166 189 168 179 125 79 92 96 89 47 58 37 49 50 61 63 61 65 56 14 336 304 290 278 247 256 259 252 243 243 246 239 235 239 226 246 268
240 149 88 57 79 87 126 118 105 61 119 241 217 182 182 279 275 315 347 157 214 225 223 219 213 203 202 192 176 155 138 134 169 187 185 176 169 156 161 140 138 175 178 162 154 128 120 127 141 148 157 155 150 154 156 157 150 143 144 151 151 156 131 128 120 108 96 89 83 52 50 48 43 40 22 31 42 63 74 65 55 36 14 353 340 306 306 299 284 268 256 248 243 247 235 225 231
132 95 83 50 46 69 37 70 101 73 235 250 238 253 143 288 255 200 165 215 194 220 283 254 227 214 197 177 161 156 153 148 131 135 145 148 156 135 139 139 154 134 142 145 153 152 143 133 137 138 158 140 131 142 145 141 134 135 140 140 143 152 154 135 115 91 90 74 87 58 40 359 13 27 40 25 34 25 40 53 48 41 37 20 337 355 353 340 339 336 318 311 293 274 275 275 278
128 98 121 88 13 20 30 352 41 166 257 261 285 184 138 198 291 278 237 269 211 184 205 195 185 189 177 175 176 173 165 160 145 133 149 144 112 116 125 140 153 155 134 146 159 156 153 138 129 121 117 129 109 118 119 115 109 104 115 130 137 145 142 131 125 112 111 115 116 71 33 30 1 2 11 4 2 16 41 28 25 11 5 11 25 20 22 357 340 334 335 334 318 311 303 291 274
88 104 123 129 193 57 233 22 214 218 190 284 334 212 334 244 229 239 300 275 250 205 204 191 177 177 176 178 173 174 165 148 157 165 163 162 156 158 153 157 144 152 162 163 155 144 133 124 126 118 108 101 100 111 120 118 107 103 105 102 110 111 98 106 110 93 80 72 55 52 47 43 27 42 9 33 9 16 27 31 28 29 18 13 9 16 4 6 8 7 2 352 349 345 334 325 316
124 147 148 126 124 134 189 255 244 300 284 278 256 309 260 251 286 253 240 251 232 265 214 158 162 163 168 168 163 155 159 163 169 169 170 165 161 159 157 157 154 157 160 157 143 130 128 123 120 113 110 96 99 104 117 109 102 99 94 96 102 100 99 95 97 99 89 93 104 101 97 105 94 86 61 60 23 52 49 64 58 44 33 25 29 23 19 10 11 3 351 341 337 328 333 339 330
198 125 150 169 140 150 183 187 190 208 200 265 282 100 231 136 238 283 269 278 161 301 108 132 134 148 152 154 134 126 136 148 152 155 160 157 152 146 145 144 147 152 154 144 134 123 121 120 117 116 112 88 96 110 106 103 94 87 88 92 87 85 84 76 69 87 94 98 97 97 104 99 84 79 82 76 55 66 54 43 41 41 28 27 24 19 25 25 20 8 0 355 349 349 352 345 336
231 164 96 113 205 142 150 199 151 178 149 14 240 205 188 173 269 292 22 6 53 57 101 117 120 122 129 125 138 147 142 139 137 126 117 117 122 115 110 107 108 109 111 115 122 124 120 122 118 116 123 102 95 94 88 89 79 72 67 71 65 70 70 74 79 77 91 111 108 107 82 73 71 69 51 50 33 46 36 28 22 18 18 22 16 24 33 28 18 12 4 8 358 3 351 348 343
232 123 185 206 147 99 102 65 112 101 53 254 172 310 301 294 330 116 357 67 43 59 104 116 138 150 143 158 160 155 153 143 139 127 125 118 97 84 94 99 94 91 88 98 114 123 126 127 128 133 126 101 97 91 96 92 89 87 75 83 95 99 100 108 113 103 93 73 77 74 84 78 65 54 59 52 47 39 41 35 28 17 15 14 20 11 16 21 17 11 10 4 351 350 350 347 342
93 134 220 180 110 121 127 184 347 72 156 255 118 208 280 94 251 318 336 235 225 215 197 181 172 161 160 177 170 165 159 154 139 122 114 109 103 100 92 84 93 97 99 93 96 101 104 111 123 124 116 116 111 111 110 112 109 107 105 99 91 100 107 107 105 103 94 87 71 74 70 62 62 65 68 58 55 43 37 35 31 21 14 27 25 24 21 13 5 353 347 338 324 329 329 327 328
143 189 208 124 228 223 288 100 183 181 241 257 274 251 263 181 239 301 257 227 228 221 214 180 190 190 179 174 179 164 141 127 129 127 120 110 108 105 103 104 98 94 90 98 97 98 98 96 99 105 111 111 112 106 104 96 97 98 99 98 101 93 88 85 82 83 79 82 78 77 80 85 64 51 55 49 48 44 37 30 34 20 24 24 26 31 27 26 23 25 12 7 358 360 356 344 353
66 89 54 111 106 162 133 204 173 125 237 132 288 87 231 212 221 195 219 211 213 198 195 208 193 187 180 175 168 163 161 153 146 136 127 122 117 117 120 119 113 108 103 98 99 96 95 101 98 100 94 93 91 89 92 91 87 94 92 85 73 80 79 85 83 84 80 77 71 64 60 60 61 56 59 60 59 53 45 40 27 34 28 28 30 25 32 32 38 36 23 12 1 5 357 353 344
213 51 192 212 3 215 116 52 136 166 175 180 177 315 277 257 216 182 215 209 206 188 198 194 195 193 186 175 169 169 167 157 149 140 133 127 124 122 119 119 114 108 101 98 100 105 108 102 99 99 106 102 95 97 97 100 100 95 92 90 89 84 81 81 80 75 77 67 59 58 55 57 55 46 55 58 57 50 47 45 41 36 38 29 30 21 18 37 42 34 23 23 10 8 358 349 339
189 175 187 181 148 133 169 252 25 101 108 227 139 241 269 270 178 206 239 253 218 209 189 187 191 188 182 179 178 167 160 157 147 143 136 133 129 126 119 108 106 105 103 101 102 100 98 100 107 107 100 101 109 103 106 106 97 97 93 93 88 83 83 79 78 70 71 66 57 54 52 51 59 36 50 53 54 45 46 44 46 33 33 29 29 25 17 30 23 16 7 12 11 3 345 329 323